Wind_Speed
27 27 26 26 24 23 21 20 18 17 15 14 13 12 11 10 8 7 7 6 5 5 6 6 7 8 9 9 10 10 11 12 13 13 14 14 15 15 16 17 18 20 20
28 28 28 27 26 25 23 22 20 19 17 16 15 13 12 11 10 9 8 7 7 7 7 7 8 9 9 10 10 11 12 13 13 14 14 15 16 16 17 18 20 20 21
29 29 29 28 27 27 25 24 22 21 19 18 16 15 14 13 12 11 10 9 8 8 9 9 9 10 10 11 11 12 13 13 14 15 15 16 17 18 18 19 20 21 22
30 30 30 29 29 28 27 26 24 23 21 20 18 17 16 15 14 13 11 10 10 10 10 10 11 11 11 11 12 13 13 14 15 15 16 17 18 19 20 20 21 22 23
31 31 31 30 30 29 29 28 26 25 23 22 20 19 17 16 15 14 13 12 12 12 12 11 12 12 12 12 13 13 14 14 15 16 16 17 18 20 20 21 22 22 23
33 33 32 31 31 31 30 29 28 27 25 23 22 20 19 18 17 16 15 14 13 13 13 12 12 12 13 13 14 14 15 15 16 16 17 18 19 20 21 22 22 23 24
35 34 34 33 32 32 31 30 29 28 27 25 23 22 21 19 18 17 16 15 14 14 14 13 13 13 14 14 14 15 15 16 17 17 18 19 20 21 22 22 23 24 25
37 36 35 34 34 33 33 32 31 30 28 26 25 24 22 21 19 18 17 16 16 15 14 14 14 14 14 14 15 15 16 16 17 18 18 19 20 21 22 23 24 24 26
38 37 36 35 35 34 34 33 33 31 30 28 27 25 24 22 21 20 18 18 17 16 15 15 15 15 15 15 15 15 16 17 17 18 19 20 21 22 23 24 25 26 27
40 39 38 36 36 36 35 35 34 33 31 30 28 27 25 24 22 21 20 19 18 17 16 16 16 16 16 16 16 16 17 17 18 19 20 21 21 23 24 25 26 27 28
41 40 39 38 37 37 36 35 35 34 33 31 30 28 26 25 23 22 21 20 19 18 17 17 17 17 17 17 16 17 17 18 18 19 21 22 22 23 25 26 27 28 29
42 41 40 39 38 38 37 36 35 35 34 32 31 30 28 26 25 23 22 21 20 19 18 18 18 18 18 17 17 18 18 19 19 20 21 22 23 24 25 26 27 28 29
44 42 41 40 39 39 38 37 36 36 35 33 32 31 30 28 26 25 23 22 21 20 19 19 19 18 18 18 18 18 19 20 20 21 22 22 23 25 26 27 28 29 30
46 44 42 41 40 39 38 38 37 37 36 35 33 32 31 30 28 26 24 23 22 21 20 19 19 19 19 19 19 19 20 20 21 21 22 23 24 26 27 28 29 30 31
47 46 44 42 41 40 39 39 38 37 37 36 34 33 32 31 29 27 25 24 23 22 21 20 20 19 19 20 20 21 21 21 21 22 23 24 25 27 28 29 30 31 32
48 47 45 43 41 40 40 39 39 38 37 36 35 34 33 32 30 28 26 25 24 23 22 21 20 20 20 20 21 21 22 22 22 23 24 25 26 27 28 29 30 32 33
49 48 47 45 43 42 41 40 40 39 38 37 36 34 33 32 31 29 27 26 24 23 22 22 21 21 21 21 22 22 23 23 24 24 25 26 27 28 29 30 32 33 34
50 49 47 47 45 43 42 41 40 40 39 37 36 35 34 33 31 29 28 26 25 24 23 22 22 22 22 22 22 23 24 24 25 25 26 27 28 29 30 31 33 34 35
51 50 49 47 46 45 44 43 42 41 39 38 36 35 34 34 32 30 29 28 26 25 24 23 23 23 23 23 23 24 25 25 25 26 26 28 29 30 31 32 33 35 36
53 51 50 49 48 47 46 44 43 42 40 39 37 36 35 34 32 31 30 29 27 26 25 24 24 24 24 24 24 25 26 26 26 27 27 29 30 31 32 33 35 36 37
55 53 51 50 49 48 47 45 43 42 41 40 38 37 36 34 33 32 31 29 28 27 26 26 25 25 25 25 25 26 27 27 27 28 29 30 31 32 33 34 35 36 37
56 54 52 51 51 49 47 46 45 44 43 41 40 39 37 36 34 33 31 30 29 28 27 27 26 26 26 26 26 27 27 27 28 29 30 31 32 34 35 35 36 37 38
57 55 54 52 51 50 48 47 46 45 44 42 40 39 38 37 36 34 32 31 30 29 28 27 27 27 27 27 27 27 28 28 29 30 31 32 33 34 35 36 37 38 39
57 56 55 54 53 51 49 47 46 45 43 42 41 40 39 38 37 35 33 32 32 31 30 29 28 28 28 28 27 28 29 30 30 31 32 33 34 35 36 37 39 39 40
58 57 57 56 54 52 51 48 47 46 44 43 42 41 40 39 37 36 34 33 33 32 30 30 29 29 29 29 29 29 30 31 32 32 32 33 34 36 37 38 39 40 41
60 59 58 57 56 54 52 50 48 46 45 43 42 41 40 39 37 36 35 34 33 32 31 30 30 30 30 29 29 30 30 31 32 33 33 34 35 36 38 39 40 41 42
Wind_Direction
235 234 232 231 231 229 226 224 223 221 220 221 221 221 224 227 229 230 234 247 259 271 283 294 300 305 308 311 313 315 318 321 322 321 323 323 323 323 322 322 322 321 320
237 235 233 232 230 229 227 225 224 223 223 224 224 225 226 229 232 234 238 249 258 268 281 289 295 298 302 305 308 310 314 316 317 318 320 321 322 322 320 321 320 320 320
236 235 234 232 230 229 228 226 226 225 224 225 226 228 229 231 233 235 241 250 258 266 277 284 289 291 295 299 303 306 310 312 313 315 317 319 320 320 319 320 319 320 320
234 233 232 230 229 229 228 227 226 226 226 227 228 229 231 233 234 236 242 250 257 264 272 280 284 287 290 294 299 303 307 309 312 314 316 317 319 319 319 319 319 319 320
233 233 231 229 229 228 228 228 227 227 227 228 229 230 231 233 234 237 242 250 255 261 269 276 279 282 287 292 297 300 304 306 310 312 315 316 318 319 319 319 320 320 320
232 232 231 229 228 228 228 228 228 228 228 229 229 231 232 232 235 239 243 250 255 260 268 273 275 280 286 291 295 298 301 305 309 312 314 315 317 318 319 320 321 320 321
232 230 230 229 228 227 228 228 228 228 229 229 230 230 231 232 235 239 243 250 255 260 266 269 273 278 285 290 295 297 300 305 308 311 313 315 317 318 319 321 321 321 323
231 230 229 228 227 226 227 228 228 229 230 230 230 230 230 232 235 238 243 249 254 259 263 266 271 277 283 289 294 296 300 304 307 310 313 316 318 319 320 320 321 322 323
231 229 228 227 226 226 227 228 229 229 230 230 230 230 230 232 235 239 243 248 253 256 260 265 269 276 282 288 291 295 299 303 306 310 313 316 318 320 320 321 321 322 323
230 229 228 228 227 226 227 228 228 229 229 229 229 229 230 232 235 239 243 248 251 253 258 263 269 276 281 285 289 294 298 302 305 309 313 315 317 319 320 321 322 323 324
229 228 228 228 227 227 227 228 228 228 228 229 229 229 230 232 235 238 244 247 249 252 258 263 269 275 279 283 287 292 297 301 304 308 312 314 316 318 319 320 321 322 323
228 228 228 228 227 227 227 228 228 227 228 228 228 228 230 232 235 239 243 246 248 252 258 263 268 273 278 282 286 291 296 299 303 307 311 313 316 318 319 320 321 322 322
227 226 227 227 227 226 226 227 226 226 226 227 227 228 229 232 235 238 242 245 248 251 258 263 268 273 277 280 284 290 295 298 302 306 310 312 315 317 319 320 321 321 322
226 225 225 226 226 225 225 225 226 226 226 226 226 228 230 232 234 237 240 243 247 250 256 261 267 272 276 279 283 289 293 296 300 305 308 310 313 317 319 320 320 321 322
225 224 224 225 225 225 224 224 225 225 226 226 226 228 230 232 233 235 239 242 246 251 255 260 267 272 275 279 283 288 292 295 298 303 306 309 313 316 318 319 320 321 321
224 223 222 223 224 224 224 224 224 225 226 226 226 227 229 231 233 235 238 242 246 251 255 260 266 271 275 279 283 287 292 294 297 301 304 308 312 315 317 318 319 320 320
223 223 223 222 223 223 223 223 224 224 226 225 225 227 228 230 232 235 238 242 246 251 255 259 265 270 274 278 282 286 291 294 296 299 303 307 310 313 315 316 318 319 319
223 223 223 222 222 222 222 222 223 224 225 224 225 227 228 230 232 235 238 241 246 250 255 259 265 270 273 277 282 286 291 293 295 299 303 306 309 312 314 315 316 317 318
222 222 222 222 221 221 221 221 222 223 223 224 225 226 228 231 233 235 238 241 246 250 255 260 265 269 273 277 281 286 290 292 295 298 302 305 308 311 312 314 315 316 316
221 221 221 221 220 220 220 221 222 222 223 223 225 226 228 230 233 235 238 242 246 251 256 260 264 269 273 276 281 285 289 292 295 298 301 305 307 310 311 312 314 314 315
219 220 221 220 219 219 220 221 222 222 222 223 224 226 227 230 233 236 238 242 246 251 255 260 264 268 272 276 280 284 288 291 294 298 301 304 306 309 310 311 312 313 314
219 219 219 219 218 218 220 220 221 222 222 223 224 225 227 230 233 236 239 243 247 251 255 260 264 267 271 275 278 283 287 290 293 297 300 303 305 307 309 310 311 312 313
219 219 218 218 218 218 219 220 220 221 222 223 224 226 228 230 233 237 240 244 247 251 255 260 263 266 270 274 277 282 286 289 292 296 299 302 305 306 307 309 311 312 313
218 219 219 218 219 218 219 220 221 222 222 223 224 226 228 231 234 237 240 244 247 251 255 259 263 266 269 273 277 281 285 289 292 295 298 301 303 305 306 308 310 312 313
217 218 219 219 219 219 219 220 221 221 222 223 224 226 228 231 234 237 241 244 248 251 254 258 262 265 268 272 276 280 285 288 291 294 298 301 303 304 306 307 309 311 312
217 218 219 219 219 220 219 220 220 221 222 223 224 226 228 231 234 237 240 244 247 250 253 257 261 264 268 272 276 280 284 288 291 294 298 300 302 303 305 306 309 311 312
Height
5843 5845 5848 5850 5853 5855 5857 5859 5861 5862 5864 5865 5866 5868 5869 5870 5871 5872 5872 5873 5874 5875 5875 5875 5875 5875 5875 5874 5874 5874 5873 5872 5872 5871 5870 5869 5867 5866 5865 5863 5862 5861 5859
5839 5841 5844 5846 5849 5851 5853 5855 5858 5860 5861 5863 5864 5865 5867 5868 5869 5870 5871 5872 5872 5873 5873 5874 5874 5873 5873 5873 5872 5872 5871 5871 5870 5869 5868 5867 5866 5864 5863 5861 5860 5858 5856
5834 5837 5839 5842 5845 5847 5849 5852 5854 5856 5858 5860 5862 5863 5864 5865 5867 5868 5869 5870 5871 5871 5872 5872 5872 5872 5871 5871 5871 5870 5870 5869 5868 5867 5866 5865 5863 5862 5860 5859 5857 5855 5853
5829 5832 5834 5837 5840 5843 5845 5848 5850 5853 5855 5857 5859 5860 5862 5863 5864 5866 5867 5868 5868 5869 5870 5870 5870 5870 5869 5869 5869 5868 5868 5867 5866 5865 5864 5863 5861 5860 5858 5856 5854 5852 5850
5824 5826 5829 5832 5835 5838 5841 5844 5846 5849 5851 5853 5855 5857 5859 5860 5862 5863 5864 5865 5866 5867 5868 5868 5868 5867 5867 5867 5867 5866 5865 5865 5864 5863 5861 5860 5859 5857 5855 5853 5851 5849 5847
5818 5821 5824 5827 5830 5833 5836 5839 5842 5845 5847 5850 5852 5854 5855 5857 5859 5860 5861 5862 5864 5864 5865 5865 5865 5865 5865 5865 5865 5864 5863 5862 5861 5860 5859 5858 5856 5854 5852 5850 5848 5846 5843
5812 5815 5818 5822 5825 5828 5831 5834 5837 5840 5843 5846 5848 5850 5852 5854 5856 5857 5858 5860 5861 5862 5862 5863 5863 5863 5862 5862 5862 5862 5861 5860 5859 5858 5856 5855 5853 5851 5849 5847 5845 5842 5839
5805 5809 5812 5816 5819 5822 5826 5829 5832 5835 5838 5841 5844 5846 5848 5850 5852 5854 5855 5856 5858 5859 5859 5860 5860 5860 5860 5860 5859 5859 5858 5857 5856 5855 5853 5852 5850 5848 5846 5843 5841 5838 5836
5798 5802 5806 5809 5813 5817 5820 5823 5827 5830 5833 5836 5839 5842 5844 5846 5848 5850 5852 5853 5854 5855 5856 5857 5857 5857 5857 5857 5856 5856 5855 5854 5853 5852 5850 5848 5847 5844 5842 5840 5837 5835 5832
5791 5795 5799 5803 5807 5811 5814 5818 5821 5825 5828 5831 5834 5837 5840 5842 5844 5846 5848 5849 5851 5852 5853 5853 5854 5854 5854 5853 5853 5853 5852 5851 5850 5849 5847 5845 5843 5841 5839 5836 5833 5831 5827
5783 5788 5792 5796 5800 5804 5808 5812 5815 5819 5823 5826 5829 5832 5835 5838 5840 5842 5844 5846 5847 5848 5849 5850 5850 5850 5850 5850 5850 5849 5849 5848 5846 5845 5843 5841 5839 5837 5835 5832 5829 5826 5823
5776 5780 5785 5789 5793 5798 5802 5805 5809 5813 5817 5821 5824 5827 5830 5833 5836 5838 5840 5841 5843 5844 5845 5846 5847 5847 5847 5847 5846 5846 5845 5844 5843 5841 5840 5838 5836 5833 5831 5828 5825 5822 5819
5767 5772 5777 5781 5786 5791 5795 5799 5803 5807 5811 5815 5818 5822 5825 5828 5831 5833 5835 5837 5839 5840 5841 5842 5843 5843 5843 5843 5843 5842 5841 5840 5839 5837 5836 5834 5832 5829 5827 5824 5821 5818 5814
5758 5763 5768 5773 5778 5783 5788 5792 5796 5801 5805 5809 5813 5816 5820 5823 5826 5828 5830 5832 5834 5836 5837 5838 5839 5839 5839 5839 5839 5838 5837 5836 5835 5833 5831 5830 5827 5825 5822 5819 5816 5813 5809
5749 5755 5760 5766 5771 5776 5781 5785 5790 5794 5799 5803 5807 5811 5814 5817 5820 5823 5825 5828 5830 5831 5833 5834 5834 5835 5835 5835 5834 5834 5833 5832 5831 5829 5827 5825 5823 5820 5818 5815 5811 5808 5804
5740 5746 5752 5757 5763 5768 5774 5778 5783 5788 5792 5796 5801 5804 5808 5811 5815 5818 5820 5823 5825 5826 5828 5829 5830 5831 5831 5831 5830 5829 5829 5827 5826 5825 5823 5821 5818 5816 5813 5810 5807 5803 5799
5731 5737 5744 5749 5755 5760 5766 5771 5776 5781 5785 5790 5794 5798 5802 5806 5809 5812 5815 5818 5820 5821 5823 5824 5825 5826 5826 5826 5825 5825 5824 5823 5821 5820 5818 5816 5813 5811 5808 5805 5801 5798 5794
5721 5728 5735 5741 5747 5752 5758 5763 5769 5774 5778 5783 5788 5792 5796 5800 5803 5807 5810 5812 5814 5816 5818 5819 5820 5821 5821 5821 5820 5820 5819 5818 5816 5815 5813 5811 5808 5805 5803 5799 5796 5792 5788
5712 5719 5726 5732 5738 5744 5750 5756 5761 5766 5771 5776 5781 5786 5790 5794 5798 5801 5804 5807 5809 5811 5813 5814 5815 5816 5816 5816 5815 5815 5814 5813 5811 5810 5808 5805 5803 5800 5797 5794 5790 5787 5783
5702 5709 5716 5723 5729 5735 5741 5747 5753 5759 5764 5770 5775 5779 5784 5788 5791 5795 5798 5801 5803 5805 5807 5808 5809 5810 5810 5810 5810 5810 5809 5807 5806 5804 5802 5800 5797 5794 5791 5788 5784 5781 5776
5691 5699 5707 5714 5721 5727 5734 5740 5746 5752 5758 5763 5768 5772 5777 5781 5785 5789 5792 5795 5797 5799 5801 5803 5804 5804 5805 5805 5805 5804 5803 5802 5800 5799 5796 5794 5792 5789 5785 5782 5778 5774 5770
5681 5690 5698 5705 5712 5719 5726 5732 5738 5744 5750 5755 5760 5765 5770 5774 5778 5782 5786 5789 5791 5793 5795 5797 5798 5798 5799 5799 5799 5798 5798 5797 5795 5793 5791 5788 5786 5783 5779 5776 5772 5768 5763
5671 5680 5688 5696 5704 5711 5717 5723 5729 5735 5741 5747 5753 5758 5763 5767 5771 5775 5779 5782 5785 5787 5789 5790 5791 5792 5793 5793 5793 5793 5792 5791 5789 5787 5785 5782 5779 5776 5773 5769 5765 5761 5756
5662 5670 5678 5687 5694 5702 5708 5715 5722 5728 5735 5741 5746 5751 5755 5760 5764 5768 5772 5775 5778 5780 5782 5784 5785 5786 5786 5787 5786 5786 5786 5784 5783 5781 5779 5776 5773 5770 5766 5762 5758 5754 5749
5651 5659 5668 5676 5684 5692 5700 5707 5714 5721 5727 5732 5738 5743 5748 5752 5757 5761 5765 5768 5771 5773 5775 5777 5778 5779 5780 5780 5780 5779 5779 5778 5776 5775 5773 5770 5766 5763 5759 5755 5751 5747 5742
5639 5648 5657 5666 5675 5683 5691 5698 5706 5713 5719 5724 5730 5735 5740 5745 5749 5754 5757 5761 5764 5766 5768 5770 5771 5772 5773 5773 5773 5773 5772 5771 5770 5768 5766 5763 5760 5756 5752 5748 5744 5739 5734